BAW189 KJFK-EGLL

Flight info

Callsign BAW189
Flight time 1h 58m
Altitude 35000
Route KJFK/22R N0485F350 DCT MERIT DCT HFD DCT PUT DCT TOPPS DCT NEEKO/M084F360 DCT 54N050W 55N040W 55N030W 54N020W DCT MALOT DCT GISTI/N0486F370 DCT LONDU DCT LUNIG DCT WTD DCT ENJEX DCT AVZAC DCT KORXA DCT INFEC DCT JETZI DCT AMFUL/N0458F230 P2 SIRIC SIRI1H EGLL/09L
Aircraft B77W/H-SDE1E2E3FGHIJ2J3J4J5M1RWXY/LB1D1

Departure

Time 2026-04-30 11:52
Airport John F. Kennedy International Airport (KJFK)

Arrival

Time 2026-04-30 13:50
Airport London Heathrow Airport (EGLL)
Time Latitude Longitude Altitude Speed Heading
2026-04-30 11:47 40.64758 -73.77194 25 ft 0 kts 56°
2026-04-30 11:48 40.64762 -73.77186 28 ft 4 kts 56°
2026-04-30 11:48 40.64793 -73.77129 28 ft 13 kts 54°
2026-04-30 11:48 40.64869 -73.76989 30 ft 22 kts 54°
2026-04-30 11:48 40.64955 -73.76831 27 ft 22 kts 54°
2026-04-30 11:49 40.64971 -73.76691 27 ft 8 kts 121°
2026-04-30 11:49 40.64960 -73.76630 32 ft 6 kts 63°
2026-04-30 11:49 40.64997 -73.76603 31 ft 6 kts 27°
2026-04-30 11:49 40.65035 -73.76576 31 ft 6 kts 28°
2026-04-30 11:50 40.65073 -73.76548 29 ft 6 kts 28°
2026-04-30 11:50 40.65098 -73.76529 32 ft 6 kts 36°
2026-04-30 11:50 40.65093 -73.76458 27 ft 7 kts 118°
2026-04-30 11:50 40.65069 -73.76406 27 ft 7 kts 120°
2026-04-30 11:51 40.65044 -73.76359 27 ft 7 kts 144°
2026-04-30 11:51 40.64985 -73.76382 27 ft 19 kts 208°
2026-04-30 11:51 40.64712 -73.76596 31 ft 81 kts 211°
2026-04-30 11:51 40.64297 -73.76921 27 ft 127 kts 210°
2026-04-30 11:52 40.62996 -73.77926 152 ft 185 kts 208°
2026-04-30 11:52 40.61859 -73.78808 691 ft 194 kts 209°
2026-04-30 11:52 40.61079 -73.79386 1100 ft 199 kts 204°
2026-04-30 11:52 40.59123 -73.79288 1457 ft 235 kts 148°
2026-04-30 11:53 40.58331 -73.78260 1910 ft 246 kts 124°
2026-04-30 11:53 40.57380 -73.76300 2444 ft 259 kts 126°
2026-04-30 11:53 40.56590 -73.74123 3042 ft 272 kts 98°
2026-04-30 11:53 40.56820 -73.71713 3944 ft 271 kts 63°
2026-04-30 11:54 40.58034 -73.69865 4868 ft 269 kts 29°
2026-04-30 11:54 40.59760 -73.68839 5570 ft 275 kts 19°
2026-04-30 11:54 40.61552 -73.67928 6295 ft 284 kts 20°
2026-04-30 11:54 40.63398 -73.66931 7082 ft 289 kts 21°
2026-04-30 11:55 40.65256 -73.65850 7874 ft 295 kts 22°
2026-04-30 11:55 40.67142 -73.64682 8653 ft 301 kts 24°
2026-04-30 11:55 40.69032 -73.63455 9404 ft 308 kts 25°
2026-04-30 11:55 40.70963 -73.62159 10139 ft 314 kts 25°
2026-04-30 11:56 40.72963 -73.60787 10614 ft 332 kts 25°
2026-04-30 11:56 40.75059 -73.59329 10797 ft 358 kts 26°
2026-04-30 11:56 40.77356 -73.57713 11024 ft 384 kts 26°
2026-04-30 11:56 40.79762 -73.56003 11536 ft 399 kts 26°
2026-04-30 11:57 40.88521 -73.49716 14359 ft 420 kts 26°
2026-04-30 11:57 40.99092 -73.42104 17393 ft 441 kts 26°
2026-04-30 11:57 41.10125 -73.34132 20045 ft 461 kts 26°
2026-04-30 11:57 41.21410 -73.25945 22449 ft 480 kts 26°
2026-04-30 11:58 41.33304 -73.17276 24533 ft 498 kts 28°
2026-04-30 11:58 41.42812 -73.03789 26755 ft 506 kts 61°
2026-04-30 11:58 41.49841 -72.87310 28496 ft 518 kts 60°
2026-04-30 11:58 41.57245 -72.70428 29984 ft 527 kts 60°
2026-04-30 11:59 41.64629 -72.53496 31357 ft 529 kts 59°
2026-04-30 11:59 41.72161 -72.36789 32610 ft 532 kts 58°
2026-04-30 11:59 41.79626 -72.20161 33953 ft 531 kts 58°
2026-04-30 11:59 41.87239 -72.03061 34814 ft 533 kts 59°
2026-04-30 12:00 41.95292 -71.85960 34922 ft 541 kts 50°
2026-04-30 12:00 42.06002 -71.72322 34868 ft 538 kts 38°
2026-04-30 12:00 42.28797 -71.46739 34794 ft 515 kts 39°
2026-04-30 12:01 42.50056 -71.22408 34863 ft 511 kts 40°
2026-04-30 12:01 42.72136 -70.96903 34929 ft 527 kts 41°
2026-04-30 12:02 42.94329 -70.71020 34813 ft 518 kts 41°
2026-04-30 12:02 43.15891 -70.45626 34858 ft 507 kts 43°
2026-04-30 12:03 43.48498 -70.06751 34864 ft 519 kts 43°
2026-04-30 12:04 43.69983 -69.80818 34948 ft 511 kts 44°
2026-04-30 12:04 43.91484 -69.54605 34935 ft 523 kts 43°
2026-04-30 12:05 44.13155 -69.27925 34882 ft 513 kts 43°
2026-04-30 12:05 44.34016 -69.01974 34924 ft 504 kts 43°
2026-04-30 12:06 44.55283 -68.75254 34982 ft 518 kts 43°
2026-04-30 12:06 44.76518 -68.48301 34905 ft 506 kts 43°
2026-04-30 12:07 44.97034 -68.21990 34994 ft 503 kts 43°
2026-04-30 12:07 45.17966 -67.94870 35017 ft 515 kts 43°
2026-04-30 12:08 45.38774 -67.67512 34940 ft 498 kts 44°
2026-04-30 12:08 45.58765 -67.40155 35037 ft 500 kts 43°
2026-04-30 12:09 45.78972 -67.12296 35021 ft 507 kts 44°
2026-04-30 12:09 45.88957 -66.98417 34982 ft 496 kts 44°
2026-04-30 12:09 45.98787 -66.84683 35023 ft 487 kts 44°
2026-04-30 12:10 46.18196 -66.57355 35092 ft 498 kts 44°
2026-04-30 12:10 46.38186 -66.28904 35041 ft 489 kts 44°
2026-04-30 12:11 46.57062 -66.01755 35082 ft 479 kts 44°
2026-04-30 12:11 46.72829 -65.78861 35127 ft 491 kts 44°
2026-04-30 12:12 46.95412 -65.45715 35051 ft 486 kts 44°
2026-04-30 12:12 47.14287 -65.17690 35113 ft 484 kts 44°
2026-04-30 12:13 47.33565 -64.88752 35144 ft 499 kts 45°
2026-04-30 12:13 47.52408 -64.60151 35089 ft 483 kts 45°
2026-04-30 12:14 47.71271 -64.31208 35181 ft 491 kts 46°
2026-04-30 12:14 47.90345 -64.01610 35152 ft 503 kts 47°
2026-04-30 12:15 48.09537 -63.71485 35107 ft 489 kts 47°
2026-04-30 12:15 48.28035 -63.42115 35193 ft 491 kts 48°
2026-04-30 12:16 48.47099 -63.11498 35203 ft 505 kts 48°
2026-04-30 12:16 48.66054 -62.80699 35134 ft 492 kts 49°
2026-04-30 12:17 48.94087 -62.34459 35256 ft 512 kts 49°
2026-04-30 12:17 49.13369 -62.02178 35170 ft 506 kts 50°
2026-04-30 12:18 49.32109 -61.70407 35216 ft 502 kts 50°
2026-04-30 12:18 49.50931 -61.38102 35262 ft 519 kts 50°
2026-04-30 12:19 49.69915 -61.05115 35201 ft 510 kts 51°
2026-04-30 12:19 49.88525 -60.72355 35258 ft 504 kts 51°
2026-04-30 12:20 50.07243 -60.38981 35302 ft 520 kts 51°
2026-04-30 12:20 50.26092 -60.04944 35214 ft 512 kts 51°
2026-04-30 12:21 50.44343 -59.71545 35269 ft 505 kts 51°
2026-04-30 12:21 50.62778 -59.37364 35311 ft 519 kts 51°
2026-04-30 12:22 50.81403 -59.02370 35240 ft 514 kts 52°
2026-04-30 12:22 50.99400 -58.68097 35256 ft 504 kts 52°
2026-04-30 12:23 51.17315 -58.33515 35313 ft 518 kts 52°
2026-04-30 12:23 51.35715 -57.97516 35239 ft 516 kts 52°
2026-04-30 12:24 51.53560 -57.62107 35247 ft 504 kts 52°
2026-04-30 12:24 51.71242 -57.26533 35288 ft 519 kts 53°
2026-04-30 12:25 51.88817 -56.90684 35225 ft 504 kts 53°
2026-04-30 12:25 52.06242 -56.54629 35295 ft 513 kts 53°
2026-04-30 12:26 52.23925 -56.17519 35212 ft 515 kts 53°
2026-04-30 12:26 52.40848 -55.80772 35201 ft 502 kts 62°
2026-04-30 12:27 52.47169 -55.60185 35873 ft 508 kts 65°
2026-04-30 12:27 52.53586 -55.39011 36319 ft 517 kts 65°
2026-04-30 12:27 52.66302 -54.96880 36198 ft 508 kts 65°
2026-04-30 12:28 52.72483 -54.76111 36170 ft 496 kts 65°
2026-04-30 12:28 52.78518 -54.55648 36242 ft 496 kts 66°
2026-04-30 12:28 52.90677 -54.13889 36282 ft 514 kts 66°
2026-04-30 12:29 53.02898 -53.71170 36192 ft 502 kts 66°
2026-04-30 12:29 53.14579 -53.29583 36275 ft 502 kts 67°
2026-04-30 12:30 53.26500 -52.86367 36272 ft 516 kts 67°
2026-04-30 12:30 53.38108 -52.43495 36208 ft 503 kts 68°
2026-04-30 12:31 53.49486 -52.00663 36316 ft 511 kts 68°
2026-04-30 12:31 53.61112 -51.56064 36262 ft 518 kts 69°
2026-04-30 12:32 53.72373 -51.11994 36237 ft 504 kts 69°
2026-04-30 12:32 53.83427 -50.67862 36333 ft 517 kts 69°
2026-04-30 12:33 53.90816 -50.37868 36306 ft 521 kts 70°
2026-04-30 12:33 53.99862 -50.00368 36223 ft 507 kts 73°
2026-04-30 12:33 54.03287 -49.77498 36313 ft 502 kts 80°
2026-04-30 12:34 54.09864 -49.30183 36343 ft 519 kts 79°
2026-04-30 12:34 54.16367 -48.82379 36249 ft 506 kts 80°
2026-04-30 12:35 54.22495 -48.35797 36336 ft 510 kts 80°
2026-04-30 12:35 54.28596 -47.87894 36306 ft 516 kts 80°
2026-04-30 12:36 54.33507 -47.48098 36244 ft 501 kts 81°
2026-04-30 12:36 54.39139 -47.00920 36378 ft 516 kts 81°
2026-04-30 12:37 54.45600 -46.44688 36272 ft 504 kts 81°
2026-04-30 12:37 54.49954 -46.05297 36365 ft 508 kts 82°
2026-04-30 12:38 54.55069 -45.57393 36320 ft 515 kts 82°
2026-04-30 12:38 54.60000 -45.09306 36284 ft 499 kts 82°
2026-04-30 12:39 54.64684 -44.61647 36382 ft 511 kts 82°
2026-04-30 12:39 54.69275 -44.12920 36324 ft 510 kts 83°
2026-04-30 12:40 54.73561 -43.65276 36241 ft 502 kts 83°
2026-04-30 12:40 54.75651 -43.41214 36343 ft 510 kts 83°
2026-04-30 12:40 54.77729 -43.16716 36363 ft 516 kts 83°
2026-04-30 12:41 54.81706 -42.68047 36309 ft 500 kts 83°
2026-04-30 12:41 54.85420 -42.20135 36395 ft 511 kts 83°
2026-04-30 12:42 54.89045 -41.70788 36320 ft 510 kts 84°
2026-04-30 12:42 54.92391 -41.22493 36324 ft 499 kts 84°
2026-04-30 12:43 54.95546 -40.74113 36396 ft 514 kts 84°
2026-04-30 12:43 54.98565 -40.24735 36306 ft 505 kts 84°
2026-04-30 12:44 55.00976 -39.76548 36347 ft 501 kts 87°
2026-04-30 12:44 55.02776 -39.27037 36398 ft 515 kts 86°
2026-04-30 12:45 55.04391 -38.78227 36312 ft 499 kts 87°
2026-04-30 12:45 55.05799 -38.29719 36406 ft 506 kts 87°
2026-04-30 12:46 55.07035 -37.80320 36337 ft 508 kts 88°
2026-04-30 12:46 55.08044 -37.32310 36337 ft 495 kts 88°
2026-04-30 12:47 55.08883 -36.83002 36418 ft 508 kts 88°
2026-04-30 12:47 55.09518 -36.34019 36345 ft 499 kts 88°
2026-04-30 12:48 55.09953 -35.85795 36421 ft 500 kts 88°
2026-04-30 12:48 55.10199 -35.36799 36371 ft 506 kts 88°
2026-04-30 12:49 55.10247 -35.12425 36339 ft 495 kts 88°
2026-04-30 12:49 55.10248 -34.88755 36362 ft 490 kts 88°
2026-04-30 12:49 55.10109 -34.40174 36422 ft 506 kts 89°
2026-04-30 12:50 55.09771 -33.91583 36349 ft 494 kts 89°
2026-04-30 12:50 55.09256 -33.43882 36360 ft 494 kts 89°
2026-04-30 12:51 55.08539 -32.95380 36390 ft 502 kts 89°
2026-04-30 12:51 55.07642 -32.47571 36390 ft 486 kts 89°
2026-04-30 12:52 55.06560 -31.99684 36408 ft 502 kts 90°
2026-04-30 12:52 55.05278 -31.51667 36336 ft 488 kts 90°
2026-04-30 12:53 55.03836 -31.04295 36422 ft 493 kts 90°
2026-04-30 12:53 55.02189 -30.56551 36401 ft 496 kts 90°
2026-04-30 12:54 55.00369 -30.09064 36377 ft 483 kts 90°
2026-04-30 12:54 54.97778 -29.62058 36431 ft 500 kts 92°
2026-04-30 12:55 54.94798 -29.14229 36326 ft 485 kts 92°
2026-04-30 12:55 54.91756 -28.68143 36408 ft 484 kts 92°
2026-04-30 12:56 54.88423 -28.20554 36394 ft 497 kts 93°
2026-04-30 12:56 54.84966 -27.73937 36331 ft 482 kts 93°
2026-04-30 12:57 54.81366 -27.27704 36412 ft 488 kts 93°
2026-04-30 12:57 54.77525 -26.80877 36362 ft 494 kts 94°
2026-04-30 12:58 54.73519 -26.34310 36326 ft 480 kts 94°
2026-04-30 12:58 54.69391 -25.88348 36414 ft 494 kts 94°
2026-04-30 12:59 54.64954 -25.41209 36331 ft 491 kts 95°
2026-04-30 12:59 54.60448 -24.95214 36338 ft 483 kts 95°
2026-04-30 13:00 54.55706 -24.48718 36406 ft 499 kts 96°
2026-04-30 13:00 54.50782 -24.02378 36308 ft 486 kts 97°
2026-04-30 13:01 54.45769 -23.56834 36367 ft 494 kts 98°
2026-04-30 13:01 54.40402 -23.09902 36293 ft 498 kts 99°
2026-04-30 13:02 54.38231 -22.91387 36269 ft 490 kts 99°
2026-04-30 13:03 54.37661 -22.86562 36272 ft 488 kts 99°
2026-04-30 13:04 54.33190 -22.49321 36341 ft 492 kts 100°
2026-04-30 13:05 54.27573 -22.03962 36294 ft 505 kts 101°
2026-04-30 13:06 54.18694 -21.35150 36281 ft 493 kts 102°
2026-04-30 13:06 54.12486 -20.88911 36274 ft 505 kts 103°
2026-04-30 13:07 54.06099 -20.42789 36225 ft 489 kts 104°
2026-04-30 13:07 53.99628 -19.97498 36286 ft 503 kts 105°
2026-04-30 13:08 53.91573 -19.52499 36212 ft 487 kts 108°
2026-04-30 13:08 53.83639 -19.08778 36234 ft 489 kts 108°
2026-04-30 13:09 53.75421 -18.64599 36210 ft 494 kts 108°
2026-04-30 13:09 53.71274 -18.42685 36149 ft 483 kts 108°
2026-04-30 13:09 53.67192 -18.21368 36159 ft 476 kts 108°
2026-04-30 13:10 53.58923 -17.78897 36226 ft 485 kts 108°
2026-04-30 13:10 53.50375 -17.35950 36143 ft 476 kts 109°
2026-04-30 13:10 53.46138 -17.15006 36128 ft 464 kts 109°
2026-04-30 13:11 53.41967 -16.94604 36162 ft 461 kts 109°
2026-04-30 13:11 53.33470 -16.53679 36184 ft 476 kts 110°
2026-04-30 13:12 53.24611 -16.11875 36098 ft 466 kts 110°
2026-04-30 13:12 53.16025 -15.72158 36138 ft 458 kts 110°
2026-04-30 13:13 53.07076 -15.31561 36142 ft 469 kts 111°
2026-04-30 13:13 53.02572 -15.11413 36085 ft 461 kts 111°
2026-04-30 13:13 53.00055 -14.70023 36102 ft 452 kts 91°
2026-04-30 13:14 53.00097 -14.48916 36132 ft 461 kts 92°
2026-04-30 13:14 52.99297 -13.84981 36285 ft 460 kts 97°
2026-04-30 13:15 52.98175 -13.63944 37090 ft 466 kts 97°
2026-04-30 13:15 52.95871 -13.21079 37018 ft 461 kts 97°
2026-04-30 13:15 52.94683 -13.00059 37013 ft 448 kts 98°
2026-04-30 13:16 52.93462 -12.79168 37069 ft 448 kts 98°
2026-04-30 13:16 52.92234 -12.58708 37127 ft 459 kts 98°
2026-04-30 13:16 52.90477 -12.37695 37070 ft 466 kts 102°
2026-04-30 13:17 52.85908 -11.95629 37010 ft 455 kts 103°
2026-04-30 13:17 52.83682 -11.75331 37035 ft 447 kts 103°
2026-04-30 13:18 52.76712 -11.13929 37089 ft 465 kts 104°
2026-04-30 13:18 52.69289 -10.51539 37005 ft 451 kts 105°
2026-04-30 13:19 52.64283 -10.11101 37094 ft 456 kts 105°
2026-04-30 13:19 52.58993 -9.69584 37053 ft 471 kts 105°
2026-04-30 13:20 52.53533 -9.27969 37037 ft 456 kts 106°
2026-04-30 13:20 52.48144 -8.88082 37086 ft 454 kts 106°
2026-04-30 13:21 52.43341 -8.53404 37131 ft 466 kts 107°
2026-04-30 13:22 52.32884 -7.87658 37040 ft 465 kts 109°
2026-04-30 13:22 52.24106 -7.37444 37115 ft 456 kts 110°
2026-04-30 13:23 52.14026 -6.69186 37072 ft 474 kts 105°
2026-04-30 13:24 52.08992 -6.29956 37063 ft 460 kts 105°
2026-04-30 13:24 52.03638 -5.96792 37138 ft 453 kts 117°
2026-04-30 13:25 51.92874 -5.59128 37127 ft 468 kts 118°
2026-04-30 13:25 51.81973 -5.21201 37046 ft 463 kts 118°
2026-04-30 13:26 51.56761 -4.27915 37129 ft 468 kts 116°
2026-04-30 13:27 51.50831 -3.87229 37088 ft 470 kts 103°
2026-04-30 13:28 51.47548 -3.57295 37102 ft 461 kts 98°
2026-04-30 13:28 51.46967 -3.46993 36443 ft 463 kts 98°
2026-04-30 13:28 51.46687 -3.41896 36007 ft 466 kts 98°
2026-04-30 13:29 51.46091 -3.31480 35195 ft 468 kts 98°
2026-04-30 13:29 51.45472 -3.21124 34477 ft 468 kts 98°
2026-04-30 13:30 51.44514 -3.05562 33069 ft 471 kts 98°
2026-04-30 13:31 51.43859 -2.95094 31961 ft 474 kts 98°
2026-04-30 13:31 51.42846 -2.79177 30400 ft 475 kts 98°
2026-04-30 13:32 51.42175 -2.68777 29184 ft 469 kts 99°
2026-04-30 13:32 51.41503 -2.58524 27842 ft 455 kts 99°
2026-04-30 13:33 51.40843 -2.48594 26529 ft 444 kts 100°
2026-04-30 13:33 51.40188 -2.38877 25257 ft 433 kts 100°
2026-04-30 13:34 51.39863 -2.34125 24635 ft 429 kts 100°
2026-04-30 13:34 51.38896 -2.20122 22695 ft 416 kts 100°
2026-04-30 13:35 51.38576 -2.15525 22060 ft 411 kts 100°
2026-04-30 13:35 51.37942 -2.06500 20881 ft 402 kts 100°
2026-04-30 13:36 51.37317 -1.97720 19764 ft 394 kts 101°
2026-04-30 13:36 51.37008 -1.93416 19425 ft 392 kts 101°
2026-04-30 13:36 51.36374 -1.84682 18749 ft 392 kts 100°
2026-04-30 13:37 51.36061 -1.80391 18417 ft 391 kts 100°
2026-04-30 13:37 51.35431 -1.71802 17341 ft 386 kts 100°
2026-04-30 13:38 51.34814 -1.63433 16100 ft 364 kts 100°
2026-04-30 13:38 51.34517 -1.59436 14784 ft 357 kts 99°
2026-04-30 13:38 51.33933 -1.51605 11899 ft 354 kts 98°
2026-04-30 13:39 51.34177 -1.43692 10661 ft 342 kts 84°
2026-04-30 13:39 51.35109 -1.36732 10347 ft 296 kts 81°
2026-04-30 13:40 51.35650 -1.33688 10111 ft 282 kts 77°
2026-04-30 13:40 51.36243 -1.30739 9703 ft 273 kts 75°
2026-04-30 13:40 51.37022 -1.27957 9164 ft 273 kts 66°
2026-04-30 13:40 51.38023 -1.25345 8611 ft 274 kts 61°
2026-04-30 13:41 51.39131 -1.22901 8100 ft 273 kts 57°
2026-04-30 13:41 51.40325 -1.20508 7630 ft 275 kts 56°
2026-04-30 13:41 51.41532 -1.18107 7430 ft 274 kts 56°
2026-04-30 13:41 51.42714 -1.15772 7279 ft 271 kts 55°
2026-04-30 13:42 51.43871 -1.13395 7108 ft 269 kts 58°
2026-04-30 13:42 51.44952 -1.10960 6888 ft 268 kts 60°
2026-04-30 13:42 51.47004 -1.06053 6349 ft 257 kts 72°
2026-04-30 13:43 51.47393 -1.03274 5933 ft 253 kts 88°
2026-04-30 13:43 51.47527 -1.00500 5564 ft 247 kts 92°
2026-04-30 13:43 51.47572 -0.97764 5257 ft 246 kts 94°
2026-04-30 13:43 51.47588 -0.95030 5094 ft 240 kts 95°
2026-04-30 13:44 51.47597 -0.92381 4893 ft 236 kts 94°
2026-04-30 13:44 51.47606 -0.89814 4805 ft 228 kts 94°
2026-04-30 13:44 51.47614 -0.87308 4631 ft 222 kts 95°
2026-04-30 13:44 51.47620 -0.85210 4459 ft 218 kts 95°
2026-04-30 13:45 51.47636 -0.80382 3926 ft 212 kts 93°
2026-04-30 13:45 51.47646 -0.78103 3681 ft 201 kts 93°
2026-04-30 13:45 51.47653 -0.75920 3453 ft 188 kts 93°
2026-04-30 13:46 51.47661 -0.73882 3193 ft 176 kts 93°
2026-04-30 13:46 51.47668 -0.71986 2963 ft 165 kts 92°
2026-04-30 13:46 51.47672 -0.70135 2765 ft 169 kts 92°
2026-04-30 13:46 51.47678 -0.68251 2539 ft 170 kts 92°
2026-04-30 13:47 51.47686 -0.66363 2318 ft 170 kts 92°
2026-04-30 13:47 51.47694 -0.64491 2102 ft 163 kts 92°
2026-04-30 13:47 51.47701 -0.62742 1847 ft 150 kts 92°
2026-04-30 13:47 51.47704 -0.61191 1660 ft 128 kts 91°
2026-04-30 13:48 51.47709 -0.59807 1502 ft 126 kts 91°
2026-04-30 13:48 51.47712 -0.58388 1358 ft 129 kts 91°
2026-04-30 13:48 51.47725 -0.56963 1170 ft 127 kts 91°
2026-04-30 13:48 51.47734 -0.55535 950 ft 129 kts 91°
2026-04-30 13:49 51.47737 -0.54074 783 ft 131 kts 91°
2026-04-30 13:49 51.47743 -0.52634 655 ft 129 kts 93°
2026-04-30 13:49 51.47739 -0.51160 458 ft 135 kts 91°
2026-04-30 13:49 51.47741 -0.49658 246 ft 132 kts 89°
2026-04-30 13:50 51.47748 -0.48252 98 ft 123 kts 90°
2026-04-30 13:50 51.47762 -0.46273 93 ft 47 kts 89°
2026-04-30 13:50 51.47760 -0.45854 92 ft 32 kts 90°
2026-04-30 13:51 51.47761 -0.45575 93 ft 9 kts 90°
2026-04-30 13:51 51.47751 -0.45489 94 ft 8 kts 129°
2026-04-30 13:51 51.47695 -0.45472 93 ft 8 kts 177°
2026-04-30 13:51 51.47636 -0.45467 91 ft 8 kts 177°
2026-04-30 13:52 51.47597 -0.45520 96 ft 9 kts 265°
2026-04-30 13:52 51.47595 -0.45622 95 ft 9 kts 268°
2026-04-30 13:52 51.47593 -0.45732 95 ft 10 kts 268°
2026-04-30 13:52 51.47592 -0.45802 94 ft 11 kts 271°
2026-04-30 13:53 51.47594 -0.45924 95 ft 11 kts 270°
2026-04-30 13:53 51.47594 -0.46051 95 ft 12 kts 270°
2026-04-30 13:53 51.47595 -0.46186 95 ft 12 kts 270°
2026-04-30 13:53 51.47594 -0.46320 95 ft 12 kts 269°
2026-04-30 13:54 51.47593 -0.46461 95 ft 13 kts 270°
2026-04-30 13:54 51.47592 -0.46648 92 ft 19 kts 270°
2026-04-30 13:54 51.47586 -0.46864 95 ft 19 kts 266°
2026-04-30 13:54 51.47582 -0.47078 95 ft 19 kts 269°
2026-04-30 13:55 51.47580 -0.47294 95 ft 19 kts 269°
2026-04-30 13:55 51.47578 -0.47508 94 ft 19 kts 269°
2026-04-30 13:55 51.47579 -0.47724 95 ft 19 kts 270°
2026-04-30 13:55 51.47573 -0.47851 94 ft 10 kts 243°
2026-04-30 13:56 51.47508 -0.47876 92 ft 10 kts 180°
2026-04-30 13:56 51.47433 -0.47876 92 ft 11 kts 180°
2026-04-30 13:56 51.47355 -0.47875 92 ft 11 kts 179°
2026-04-30 13:56 51.47273 -0.47874 93 ft 12 kts 179°
2026-04-30 13:57 51.47225 -0.47872 95 ft 0 kts 174°
2026-04-30 13:57 51.47222 -0.47870 95 ft 1 kts 163°
2026-04-30 13:57 51.47217 -0.47854 95 ft 2 kts 110°
2026-04-30 13:57 51.47219 -0.47825 96 ft 4 kts 84°
2026-04-30 13:58 51.47220 -0.47776 95 ft 5 kts 88°
2026-04-30 13:58 51.47221 -0.47723 95 ft 0 kts 88°